Weather in Shtormove

Ukraine / Luhansk Region     49°05′59″N   38°54′47″E
temp.,
°C
wind,
m/s
gust,
m/s
humid.,
%
clouds,
%
prec.,
mm/h
press.,
hPa
HPBL,
m
17 april, sat
sat1700:00+9s3588100 1.9 1018329
03:00+9sw248195 2.9 1018250
06:00+7wsw478294 0.1 1019210
09:00+10wsw556921 1.1 1019950
12:00+13wsw46425 0.1 10201891
15:00+13wsw774527 0.1 10201817
18:00+12wsw665045 0.0 10201538
21:00+10wsw4653100 0.0 1021603
18 april, sun
sun1800:00+8wsw246524 0.0 102196
03:00+8ssw115597 0.0 102016
06:00+9s2457100 0.0 102079
09:00+11s4450100 0.0 1020477
12:00+13sse334395 0.0 10191676
15:00+14s334195 0.0 10181835
18:00+14s234397 0.0 1017555
21:00+12sse225272 0.0 101824
19 april, mon
mon1900:00+11e2252100 0.0 101723
03:00+9sse1160100 0.0 101711
06:00+9ssw1167100 0.0 101710
09:00+13s2253100 0.0 1016498
12:00+16s224071 0.0 10152166
15:00+17ssw1236100 0.0 10142027
18:00+15se224898 0.0 1014186
21:00+12ese2261100 0.0 101528
20 april, tue
tue2000:00+11e4972100 0.0 1013262
03:00+11e51081100 0.1 1013393
06:00+9ene61285100 0.0 1009422
09:00+10ene81592100 3.2 1008634
12:00+12e101792100 4.8 1003753
15:00+14ese91884100 6.2 10001276
18:00+15s9167542 0.9 9991037
21:00+11s8158978 0.9 1002709
21 april, wed
wed2100:00+10s91779100 0.1 10021523
03:00+9s91491100 2.1 10021168
06:00+9sw81286100 0.2 1007985
09:00+9sw6118499 0.3 1012909
12:00+12wsw7966100 0.1 10141220
15:00+13wsw686185 0.4 10161357
18:00+13wsw586273 0.2 1017880
21:00+9sw387287 0.2 1020153